Weather History for Corsicana, TX

Change the Weather History Date:

Monday, January 7, 2013

  Actual Average (KACT) Record (KACT)
Temperature  
Mean Temperature 42 °F 47 °F  
Max Temperature 54 °F 58 °F 82 °F (2006)
Min Temperature 30 °F 36 °F 8 °F (1912)
Degree Days  
Heating Degree Days 23 18  
Month to date heating degree days 131  
Since 1 July heating degree days 983  
Cooling Degree Days 0 0  
Month to date cooling degree days 0  
Year to date cooling degree days 0  
Moisture  
Dew Point 31 °F    
Average Humidity 63    
Maximum Humidity 85    
Minimum Humidity 41    
Precipitation  
Precipitation 0.00 in 0.06 in 1.78 in (1961)
Month to date precipitation 0.48  
Year to date precipitation 0.48  
Snow  
Snow 0.00 in 0.00 in T in (1997)
Month to date snowfall 0.1  
Since 1 July snowfall 0.2  
Snow Depth -    
Sea Level Pressure  
Sea Level Pressure 30.25 in    
Wind  
Wind Speed 6 mph (ENE)    
Max Wind Speed 12 mph    
Max Gust Speed -    
Visibility 10 miles    
Events      
T = Trace of Precipitation, MM = Missing Value Source: NWS Daily Summary

Daily Weather History Graph

Daily Weather History Graph

Search for Another Location

Airport:

Trip Planner

Search our weather history database for the weather conditions in past years. The results will help you decide how hot, cold, wet, or windy it might be!

Date:

Astronomy

Jan. 07, 2013 Rise Set
Actual Time 7:27 AM CST 5:37 PM CST
Civil Twilight 7:00 AM CST 6:03 PM CST
Nautical Twilight 6:30 AM CST 6:34 PM CST
Astronomical Twilight 6:00 AM CST 7:03 PM CST
Moon 2:56 AM CST (1/7) 1:46 PM CST (1/7)
Length of Visible Light 11h 03m
Length of Day
10h 10m
Waning Crescent, 22% of the Moon is Illuminated
Jan 7
Waning Crescent
Jan 11
New
Jan 18
First Quarter
Jan 26
Full
Feb 3
Last Quarter

Hourly Weather History & Observations

Time (CST) Temp. Windchill Dew Point Humidity Pressure Visibility Wind Dir Wind Speed Gust Speed Precip Events Conditions
12:53 AM 39.0 °F 34.8 °F 26.1 °F 60% 30.34 in 10.0 mi North 5.8 mph - N/A   Clear
1:53 AM 37.9 °F 32.7 °F 26.1 °F 62% 30.33 in 10.0 mi North 6.9 mph - N/A   Clear
2:53 AM 36.0 °F 30.3 °F 27.0 °F 70% 30.32 in 10.0 mi North 6.9 mph - N/A   Clear
3:53 AM 30.9 °F 27.5 °F 26.1 °F 82% 30.32 in 10.0 mi North 3.5 mph - N/A   Clear
4:53 AM 33.1 °F 30.0 °F 26.1 °F 75% 30.32 in 10.0 mi North 3.5 mph - N/A   Clear
5:53 AM 32.0 °F 27.5 °F 26.1 °F 79% 30.32 in 10.0 mi North 4.6 mph - N/A   Clear
6:53 AM 30.9 °F 26.2 °F 27.0 °F 85% 30.34 in 10.0 mi North 4.6 mph - N/A   Clear
7:53 AM 33.1 °F 30.0 °F 27.0 °F 78% 30.34 in 10.0 mi NNE 3.5 mph - N/A   Clear
8:53 AM 37.0 °F - 30.0 °F 76% 30.35 in 10.0 mi Calm Calm - N/A   Clear
9:53 AM 45.0 °F 40.1 °F 36.0 °F 71% 30.35 in 10.0 mi East 9.2 mph - N/A   Clear
10:53 AM 48.0 °F - 34.0 °F 58% 30.34 in 10.0 mi ESE 11.5 mph - N/A   Clear
11:53 AM 51.1 °F - 35.1 °F 54% 30.32 in 10.0 mi SE 9.2 mph - N/A   Clear
12:50 PM 51.8 °F - 33.8 °F 50% 30.26 in 1.5 mi East 9.2 mph - N/A   Haze
1:53 PM 53.1 °F - 32.0 °F 45% 30.23 in 10.0 mi ESE 5.8 mph - N/A   Clear
2:53 PM 54.0 °F - 32.0 °F 43% 30.20 in 10.0 mi East 9.2 mph - N/A   Clear
3:53 PM 54.0 °F - 30.9 °F 41% 30.18 in 10.0 mi ESE 9.2 mph - N/A   Clear
5:53 PM 48.9 °F - 32.0 °F 52% 30.17 in 10.0 mi East 4.6 mph - N/A   Clear
6:53 PM 48.0 °F - 33.1 °F 56% 30.17 in 10.0 mi East 5.8 mph - N/A   Partly Cloudy
7:53 PM 46.9 °F - 34.0 °F 61% 30.18 in 10.0 mi East 3.5 mph - N/A   Mostly Cloudy
8:53 PM 48.9 °F - 35.1 °F 59% 30.14 in 10.0 mi East 8.1 mph - N/A   Overcast
9:53 PM 46.9 °F - 34.0 °F 61% 30.15 in 10.0 mi Calm Calm - N/A   Partly Cloudy
10:53 PM 46.9 °F - 36.0 °F 66% 30.14 in 10.0 mi SE 4.6 mph - N/A   Mostly Cloudy
11:13 PM 46.4 °F - 35.6 °F 66% 30.14 in 10.0 mi Calm Calm - N/A   Mostly Cloudy
11:22 PM 46.4 °F 45.2 °F 35.6 °F 66% 30.14 in 10.0 mi SE 3.5 mph - N/A   Mostly Cloudy
11:53 PM 46.9 °F - 36.0 °F 66% 30.13 in 10.0 mi ESE 4.6 mph - N/A   Overcast